Lancaster, PA

12:02 AM EDT on April 28, 2017 (GMT -0400)
Lancaster

Weather History for KLNS - November, 2010

Change the Weather History Date:

Monday, November 1, 2010

  Actual Average Record
Temperature  
Mean Temperature 42 °F -  
Max Temperature 48 °F 59 °F 134 °F (1997)
Min Temperature 35 °F 39 °F 25 °F (1986)
Degree Days  
Heating Degree Days 24    
Moisture  
Dew Point 27 °F    
Average Humidity 59    
Maximum Humidity 72    
Minimum Humidity 43    
Precipitation  
Precipitation 0.00 in - - ()
Sea Level Pressure  
Sea Level Pressure 30.34 in    
Wind  
Wind Speed 7 mph (North)    
Max Wind Speed 12 mph    
Max Gust Speed 18 mph    
Visibility 10 miles    
Events      
Averages and records for this station are not official NWS values.
T = Trace of Precipitation, MM = Missing Value Source: NWS Daily Summary

Daily Weather History Graph

Daily Weather History Graph

Search for Another Location

Airport or City:

Trip Planner

Search our weather history database for the weather conditions in past years. The results will help you decide how hot, cold, wet, or windy it might be!

Date:

Astronomy

Nov. 01, 2010 Rise Set
Actual Time 7:34 AM EDT 6:02 PM EDT
Civil Twilight 7:06 AM EDT 6:30 PM EDT
Nautical Twilight 6:34 AM EDT 7:02 PM EDT
Astronomical Twilight 6:02 AM EDT 7:34 PM EDT
Moon 2:07 AM EDT (11/1) 3:09 PM EDT (11/1)
Length of Visible Light 11h 24m
Length of Day
10h 28m
Waning Crescent, 26% of the Moon is Illuminated
Nov 1
Waning Crescent
Nov 6
New
Nov 13
First Quarter
Nov 21
Full
Nov 28
Last Quarter

Hourly Weather History & Observations

Time (EDT) Temp. Windchill Dew Point Humidity Pressure Visibility Wind Dir Wind Speed Gust Speed Precip Events Conditions
12:53 AM 39.0 °F 34.0 °F 28.0 °F 65% 30.19 in 10.0 mi North 6.9 mph - N/A   Mostly Cloudy
1:53 AM 41.0 °F 37.1 °F 28.9 °F 62% 30.20 in 10.0 mi NNE 5.8 mph - N/A   Overcast
2:53 AM 42.1 °F 38.4 °F 28.9 °F 60% 30.22 in 10.0 mi North 5.8 mph - N/A   Overcast
3:53 AM 39.0 °F 33.4 °F 28.0 °F 65% 30.24 in 10.0 mi North 8.1 mph - N/A   Scattered Clouds
4:53 AM 39.0 °F 31.8 °F 27.0 °F 62% 30.27 in 10.0 mi North 11.5 mph - N/A   Clear
5:53 AM 36.0 °F 30.3 °F 26.1 °F 67% 30.30 in 10.0 mi North 6.9 mph - N/A   Clear
6:53 AM 35.1 °F 31.0 °F 26.1 °F 70% 30.32 in 10.0 mi North 4.6 mph - N/A   Clear
7:53 AM 35.1 °F 29.3 °F 26.1 °F 70% 30.34 in 10.0 mi NW 6.9 mph - N/A   Clear
8:53 AM 39.0 °F 33.4 °F 28.0 °F 65% 30.36 in 10.0 mi NNW 8.1 mph - N/A   Clear
9:53 AM 41.0 °F 34.3 °F 27.0 °F 57% 30.37 in 10.0 mi NNW 11.5 mph 16.1 mph N/A   Clear
10:53 AM 42.1 °F 36.1 °F 26.1 °F 53% 30.37 in 10.0 mi NNE 10.4 mph - N/A   Clear
11:53 AM 44.1 °F 38.6 °F 27.0 °F 51% 30.38 in 10.0 mi North 10.4 mph - N/A   Clear
12:53 PM 45.0 °F 42.6 °F 26.1 °F 48% 30.36 in 10.0 mi Variable 4.6 mph 18.4 mph N/A   Clear
1:53 PM 48.0 °F - 27.0 °F 44% 30.34 in 10.0 mi North 9.2 mph - N/A   Clear
2:53 PM 48.0 °F - 27.0 °F 44% 30.33 in 10.0 mi Variable 4.6 mph - N/A   Clear
3:53 PM 48.9 °F - 27.0 °F 43% 30.34 in 10.0 mi NW 8.1 mph - N/A   Clear
4:53 PM 48.0 °F - 27.0 °F 44% 30.35 in 10.0 mi North 9.2 mph - N/A   Clear
5:53 PM 45.0 °F 41.8 °F 26.1 °F 48% 30.36 in 10.0 mi North 5.8 mph - N/A   Clear
6:53 PM 41.0 °F 35.8 °F 27.0 °F 57% 30.39 in 10.0 mi North 8.1 mph - N/A   Clear
7:53 PM 39.9 °F 34.5 °F 27.0 °F 60% 30.41 in 10.0 mi North 8.1 mph - N/A   Clear
8:53 PM 39.0 °F 32.3 °F 27.0 °F 62% 30.42 in 10.0 mi NNE 10.4 mph - N/A   Clear
9:53 PM 37.0 °F 31.6 °F 27.0 °F 67% 30.44 in 10.0 mi NE 6.9 mph - N/A   Clear
10:53 PM 36.0 °F 30.3 °F 27.0 °F 70% 30.45 in 10.0 mi NE 6.9 mph - N/A   Clear
11:53 PM 35.1 °F 31.0 °F 27.0 °F 72% 30.46 in 10.0 mi NNE 4.6 mph - N/A   Clear